Tracking 30298 objects as of 27-Apr-2025
HD Live streaming from Space Station
objects crossing your sky now

COSMOS 1275 DEB

Track COSMOS 1275 DEB now!
10-day predictions


NORAD ID: 13796
Int'l Code: 1981-053GT
Perigee: 881.7 km
Apogee: 1,041.1 km
Inclination: 83.0 °
Period: 104.1 minutes
Semi major axis: 7332 km
RCS: 0.0167 m2 (small)
Launch date: June 4, 1981
Source: Commonwealth of Independent States (former USSR) (CIS)
Launch site: PLESETSK MISSILE AND SPACE COMPLEX (PKMTR)

Note: This is SATELLITE DEBRIS
Your satellite tracking list
Your tracking list is empty




NASA's NSSDC Master Catalog

Two Line Element Set (TLE):
1 13796U 81053GQ  25116.96426981  .00002531  00000-0  22129-2 0  9992
2 13796  83.0212  91.4873 0108661 223.1679 192.3534 13.82718104125491
Source of the keplerian elements: AFSPC